DAL227 KJFK-SBGL

Flight info

Callsign DAL227
Flight time N/A
Altitude 34000
Route WAVEY DCT EMJAY Q167 ZJAAY DCT ORF DCT ECG DCT TOMMZ AR8 OXANA/M083F340 L452 LNHOM/N0491F340 L452 SLUKA Y439 CERDA Y356 DONQU Y354 GESSO DCT GEECE UL776 KORTO DCT TIM UA312 TONOM UL452 PUMKU DCT TOPUR UL452 ILKUS UZ38 MULUV UZ6 GEPMO UZ24 MAVGU
Aircraft A339/H-SADE1E2E3GHIJ3J5M1P2RWXY/LB2D1

Departure

Time 2026-05-04 05:32
Airport John F. Kennedy International Airport (KJFK)

Arrival

Time N/A
Airport Rio Galeão – Tom Jobim International Airport (SBGL)
Time Latitude Longitude Altitude Speed Heading
2026-05-04 05:17 40.63782 -73.78024 23 ft 0 kts 264°
2026-05-04 05:24 40.63783 -73.78014 24 ft 2 kts 263°
2026-05-04 05:24 40.63785 -73.77994 24 ft 2 kts 264°
2026-05-04 05:25 40.63786 -73.77975 24 ft 2 kts 264°
2026-05-04 05:25 40.63788 -73.77956 24 ft 1 kts 264°
2026-05-04 05:25 40.63789 -73.77943 24 ft 2 kts 250°
2026-05-04 05:25 40.63797 -73.77927 24 ft 2 kts 213°
2026-05-04 05:26 40.63811 -73.77920 24 ft 2 kts 182°
2026-05-04 05:26 40.63815 -73.77920 24 ft 0 kts 174°
2026-05-04 05:26 40.63821 -73.77921 24 ft 0 kts 173°
2026-05-04 05:28 40.63692 -73.77901 24 ft 15 kts 173°
2026-05-04 05:29 40.63589 -73.77865 22 ft 15 kts 143°
2026-05-04 05:29 40.63538 -73.77805 22 ft 2 kts 182°
2026-05-04 05:29 40.63506 -73.77832 20 ft 10 kts 212°
2026-05-04 05:29 40.63427 -73.77896 20 ft 13 kts 212°
2026-05-04 05:31 40.63756 -73.79285 20 ft 131 kts 301°
2026-05-04 05:31 40.64312 -73.80499 37 ft 176 kts 300°
2026-05-04 05:32 40.64968 -73.81945 377 ft 191 kts 298°
2026-05-04 05:32 40.65555 -73.83543 928 ft 200 kts 275°
2026-05-04 05:32 40.65359 -73.85335 1656 ft 204 kts 245°
2026-05-04 05:33 40.63200 -73.88005 2661 ft 236 kts 212°
2026-05-04 05:33 40.61585 -73.88758 2968 ft 259 kts 194°
2026-05-04 05:33 40.59751 -73.88803 3482 ft 274 kts 175°
2026-05-04 05:33 40.57899 -73.88056 4099 ft 281 kts 161°
2026-05-04 05:34 40.56121 -73.87026 4685 ft 285 kts 159°
2026-05-04 05:34 40.54283 -73.86017 5271 ft 285 kts 166°
2026-05-04 05:34 40.52362 -73.85453 5858 ft 284 kts 176°
2026-05-04 05:34 40.50403 -73.85152 6430 ft 286 kts 178°
2026-05-04 05:35 40.48450 -73.84565 6938 ft 295 kts 154°
2026-05-04 05:35 40.46889 -73.82773 7479 ft 302 kts 128°
2026-05-04 05:35 40.45681 -73.80517 8092 ft 305 kts 124°
2026-05-04 05:35 40.44519 -73.78212 8621 ft 308 kts 123°
2026-05-04 05:36 40.43316 -73.75862 9149 ft 310 kts 124°
2026-05-04 05:36 40.42102 -73.73550 9684 ft 314 kts 125°
2026-05-04 05:36 40.40834 -73.71182 10205 ft 317 kts 125°
2026-05-04 05:36 40.39545 -73.68797 10518 ft 329 kts 126°
2026-05-04 05:37 40.38200 -73.66325 10759 ft 342 kts 126°
2026-05-04 05:37 40.36787 -73.63738 11000 ft 355 kts 126°
2026-05-04 05:37 40.35328 -73.61075 11238 ft 368 kts 126°
2026-05-04 05:38 40.32228 -73.55420 11701 ft 394 kts 126°
2026-05-04 05:38 40.30605 -73.52462 12013 ft 404 kts 126°
2026-05-04 05:38 40.28962 -73.49468 12539 ft 407 kts 126°
2026-05-04 05:38 40.27317 -73.46477 13105 ft 409 kts 126°
2026-05-04 05:39 40.25654 -73.43455 13640 ft 412 kts 127°
2026-05-04 05:39 40.21804 -73.37925 14676 ft 415 kts 142°
2026-05-04 05:39 40.19495 -73.35634 15206 ft 416 kts 147°
2026-05-04 05:40 40.14739 -73.31255 16180 ft 422 kts 148°
2026-05-04 05:40 40.12185 -73.29428 16610 ft 419 kts 166°
2026-05-04 05:40 40.09343 -73.28934 17091 ft 409 kts 188°
2026-05-04 05:41 40.06607 -73.29736 17607 ft 400 kts 207°
2026-05-04 05:41 40.04277 -73.31591 18088 ft 392 kts 225°
2026-05-04 05:41 40.02256 -73.33958 18578 ft 393 kts 226°
2026-05-04 05:41 40.00214 -73.36306 19023 ft 397 kts 225°
2026-05-04 05:42 39.98102 -73.38696 19493 ft 400 kts 225°
2026-05-04 05:42 39.96012 -73.41042 19983 ft 401 kts 225°
2026-05-04 05:42 39.93897 -73.43407 20472 ft 402 kts 226°
2026-05-04 05:42 39.91772 -73.45782 20931 ft 403 kts 226°
2026-05-04 05:43 39.89630 -73.48167 21376 ft 405 kts 226°
2026-05-04 05:43 39.87509 -73.50527 21800 ft 406 kts 226°
2026-05-04 05:43 39.85372 -73.52904 22226 ft 408 kts 226°
2026-05-04 05:45 39.70148 -73.69833 24874 ft 417 kts 226°
2026-05-04 05:45 39.67936 -73.72285 25202 ft 419 kts 226°
2026-05-04 05:47 39.52362 -73.89481 27560 ft 423 kts 226°
2026-05-04 05:47 39.50114 -73.91959 27857 ft 424 kts 227°
2026-05-04 05:47 39.47877 -73.94421 28160 ft 424 kts 226°
2026-05-04 05:48 39.45637 -73.96880 28550 ft 423 kts 226°
2026-05-04 05:48 39.43402 -73.99329 28979 ft 420 kts 227°
2026-05-04 05:48 39.41187 -74.01754 29385 ft 417 kts 227°
2026-05-04 05:48 39.38991 -74.04158 29777 ft 414 kts 227°
2026-05-04 05:49 39.36809 -74.06545 30226 ft 411 kts 227°
2026-05-04 05:49 39.34640 -74.08910 30624 ft 408 kts 227°
2026-05-04 05:49 39.32484 -74.11262 30904 ft 407 kts 227°
2026-05-04 05:49 39.30325 -74.13623 31222 ft 404 kts 227°
2026-05-04 05:51 39.15540 -74.29702 33041 ft 396 kts 227°
2026-05-04 05:51 39.13448 -74.31969 33191 ft 397 kts 227°
2026-05-04 05:52 39.11324 -74.34272 33343 ft 398 kts 227°
2026-05-04 05:52 39.09204 -74.36566 33523 ft 397 kts 227°
2026-05-04 05:52 39.07113 -74.38827 33714 ft 397 kts 227°
2026-05-04 05:52 39.04995 -74.41112 33894 ft 396 kts 227°
2026-05-04 05:53 39.02874 -74.43401 34027 ft 397 kts 227°
2026-05-04 05:54 38.88348 -74.59609 34048 ft 396 kts 229°